�������l�o���
Date,Time,MP-1(��Sv/h),MP-2(��Sv/h),MP-3(��Sv/h),MP-4(��Sv/h),MP-5(��Sv/h),MP-6(��Sv/h),MP-7(��Sv/h),MP-8(��Sv/h),����,����(m/s),���J
2017/09/25,00:00,0.943,1.498,0.975,1.788,1.232,0.514,0.940,0.862,�쐼,1.7,��
2017/09/25,00:10,0.944,1.501,0.975,1.787,1.232,0.513,0.940,0.862,���쐼,1.5,��
2017/09/25,00:20,0.942,1.500,0.974,1.790,1.231,0.514,0.939,0.864,��쐼,1.7,��
2017/09/25,00:30,0.943,1.500,0.974,1.788,1.230,0.515,0.939,0.862,��쐼,1.2,��
2017/09/25,00:40,0.943,1.499,0.976,1.788,1.230,0.514,0.939,0.863,��,0.9,��
2017/09/25,00:50,0.944,1.501,0.973,1.784,1.231,0.515,0.938,0.864,��,1.2,��
2017/09/25,01:00,0.942,1.501,0.975,1.787,1.230,0.514,0.939,0.862,��,1.7,��
2017/09/25,01:10,0.944,1.500,0.975,1.785,1.232,0.512,0.940,0.864,��,1.2,��
2017/09/25,01:20,0.944,1.502,0.972,1.788,1.232,0.515,0.940,0.865,��,1.7,��
2017/09/25,01:30,0.945,1.500,0.976,1.787,1.234,0.513,0.938,0.863,�쐼,1.9,��
2017/09/25,01:40,0.943,1.500,0.972,1.786,1.229,0.514,0.939,0.864,�쐼,1.1,��
2017/09/25,01:50,0.944,1.500,0.973,1.786,1.231,0.514,0.939,0.862,��쓌,1.2,��
2017/09/25,02:00,0.943,1.500,0.975,1.784,1.234,0.512,0.939,0.863,��쓌,0.9,��
2017/09/25,02:10,0.943,1.501,0.975,1.790,1.231,0.513,0.941,0.864,��쐼,1.1,��
2017/09/25,02:20,0.943,1.502,0.974,1.787,1.233,0.513,0.939,0.863,��쐼,1.2,��
2017/09/25,02:30,0.943,1.502,0.975,1.785,1.232,0.513,0.941,0.865,��쓌,1.5,��
2017/09/25,02:40,0.942,1.500,0.972,1.787,1.231,0.513,0.942,0.863,��,0.9,��
2017/09/25,02:50,0.942,1.501,0.975,1.786,1.232,0.513,0.937,0.862,��,1.1,��
2017/09/25,03:00,0.941,1.496,0.976,1.787,1.231,0.513,0.938,0.863,��,2.0,��
2017/09/25,03:10,0.943,1.498,0.974,1.787,1.231,0.513,0.938,0.864,��,1.9,��
2017/09/25,03:20,0.940,1.500,0.975,1.784,1.230,0.516,0.939,0.863,��쐼,1.5,��
2017/09/25,03:30,0.941,1.500,0.976,1.786,1.232,0.513,0.939,0.863,��,1.7,��
2017/09/25,03:40,0.942,1.499,0.975,1.785,1.230,0.513,0.939,0.864,��,1.9,��
2017/09/25,03:50,0.941,1.500,0.974,1.786,1.229,0.513,0.939,0.864,��쓌,2.0,��
2017/09/25,04:00,0.943,1.500,0.974,1.784,1.230,0.512,0.939,0.864,��쓌,2.2,��
2017/09/25,04:10,0.942,1.500,0.972,1.787,1.231,0.512,0.939,0.863,��,2.8,��
2017/09/25,04:20,0.942,1.500,0.972,1.788,1.228,0.512,0.938,0.864,��,2.9,��
2017/09/25,04:30,0.944,1.499,0.976,1.786,1.232,0.512,0.938,0.863,��,2.3,��
2017/09/25,04:40,0.943,1.500,0.974,1.785,1.230,0.515,0.940,0.863,��쓌,1.2,��
2017/09/25,04:50,0.940,1.501,0.975,1.786,1.232,0.513,0.939,0.863,-,CALM,��
2017/09/25,05:00,0.940,1.501,0.975,1.784,1.229,0.513,0.938,0.864,�k��,1.1,��
2017/09/25,05:10,0.942,1.502,0.977,1.788,1.231,0.512,0.939,0.864,�k,0.8,��
2017/09/25,05:20,0.941,1.500,0.975,1.787,1.229,0.514,0.939,0.863,�k�k��,1.2,��
2017/09/25,05:30,0.941,1.502,0.974,1.788,1.232,0.510,0.939,0.864,�k�k��,2.2,��
2017/09/25,05:40,0.942,1.501,0.975,1.787,1.230,0.513,0.939,0.865,�k�k��,3.2,��
2017/09/25,05:50,0.943,1.503,0.974,1.785,1.230,0.512,0.940,0.863,�k�k��,4.7,��
2017/09/25,06:00,0.942,1.501,0.976,1.787,1.230,0.513,0.939,0.864,�k�k��,5.0,��
2017/09/25,06:10,0.941,1.501,0.974,1.789,1.229,0.513,0.937,0.865,�k�k��,5.2,��
2017/09/25,06:20,0.942,1.500,0.973,1.787,1.231,0.511,0.941,0.863,�k�k��,5.5,��
2017/09/25,06:30,0.943,1.499,0.975,1.787,1.228,0.514,0.938,0.865,�k�k��,5.7,��
2017/09/25,06:40,0.940,1.500,0.974,1.790,1.231,0.511,0.940,0.865,�k�k��,5.5,��
2017/09/25,06:50,0.941,1.501,0.975,1.788,1.234,0.513,0.939,0.864,�k�k��,5.9,��
2017/09/25,07:00,0.941,1.503,0.976,1.786,1.229,0.511,0.940,0.864,�k,5.3,��
2017/09/25,07:10,0.942,1.501,0.976,1.788,1.232,0.513,0.940,0.865,�k,5.2,��
2017/09/25,07:20,0.942,1.504,0.977,1.790,1.232,0.512,0.939,0.864,�k,4.6,��
2017/09/25,07:30,0.943,1.502,0.976,1.789,1.228,0.511,0.941,0.867,�k,4.3,��
2017/09/25,07:40,0.943,1.503,0.977,1.789,1.231,0.512,0.940,0.864,�k,4.0,��
2017/09/25,07:50,0.942,1.503,0.978,1.790,1.231,0.511,0.938,0.865,�k�k��,3.5,��
2017/09/25,08:00,0.942,1.501,0.976,1.790,1.233,0.508,0.937,0.867,�k,2.8,��
2017/09/25,08:10,0.946,1.500,0.977,1.788,1.230,0.510,0.940,0.866,�k,3.0,��
2017/09/25,08:20,0.943,1.500,0.977,1.791,1.230,0.509,0.939,0.867,�k�k��,2.9,��
2017/09/25,08:30,0.941,1.500,0.975,1.792,1.230,0.509,0.939,0.866,�k�k��,3.0,��
2017/09/25,08:40,0.941,1.498,0.974,1.788,1.232,0.509,0.939,0.864,�k�k��,3.2,��
2017/09/25,08:50,0.943,1.497,0.974,1.792,1.233,0.510,0.940,0.863,�k�k��,2.3,��
2017/09/25,09:00,0.943,1.499,0.976,1.792,1.231,0.509,0.940,0.865,�k��,2.2,��
2017/09/25,09:10,0.944,1.501,0.974,1.792,1.229,0.509,0.941,0.861,�k��,2.6,��
2017/09/25,09:20,0.944,1.500,0.976,1.787,1.232,0.510,0.940,0.864,���k��,2.0,��
2017/09/25,09:30,0.943,1.503,0.974,1.789,1.233,0.510,0.941,0.863,���k��,2.3,��
2017/09/25,09:40,0.944,1.504,0.973,1.792,1.233,0.510,0.940,0.863,�k��,2.8,��
2017/09/25,09:50,0.945,1.503,0.974,1.793,1.235,0.511,0.940,0.863,���k��,2.8,��
2017/09/25,10:00,0.946,1.503,0.976,1.793,1.232,0.513,0.941,0.863,���k��,2.8,��
2017/09/25,10:10,0.945,1.501,0.975,1.792,1.234,0.511,0.940,0.865,�k��,3.3,��
2017/09/25,10:20,0.947,1.503,0.975,1.792,1.235,0.511,0.941,0.864,��,2.8,��
2017/09/25,10:30,0.947,1.502,0.977,1.794,1.233,0.511,0.942,0.862,���k��,2.6,��
2017/09/25,10:40,0.946,1.506,0.978,1.792,1.237,0.511,0.941,0.861,���k��,2.5,��
2017/09/25,10:50,0.947,1.505,0.978,1.794,1.235,0.512,0.942,0.863,��,2.5,��
2017/09/25,11:00,0.948,1.502,0.976,1.795,1.235,0.511,0.941,0.862,���k��,2.5,��
2017/09/25,11:10,0.948,1.504,0.980,1.793,1.236,0.511,0.939,0.863,��,3.2,��
2017/09/25,11:20,0.948,1.506,0.978,1.794,1.238,0.513,0.942,0.863,��,2.3,��
2017/09/25,11:30,0.951,1.506,0.976,1.794,1.239,0.510,0.942,0.863,���k��,2.6,��
2017/09/25,11:40,0.950,1.506,0.976,1.796,1.239,0.511,0.939,0.864,��,3.1,��
2017/09/25,11:50,0.949,1.506,0.976,1.798,1.239,0.511,0.944,0.863,���k��,2.6,��
2017/09/25,12:00,0.950,1.505,0.979,1.796,1.239,0.513,0.941,0.864,�k��,2.3,��
2017/09/25,12:10,0.950,1.508,0.981,1.795,1.241,0.511,0.941,0.866,�k��,2.3,��
2017/09/25,12:20,0.949,1.508,0.979,1.795,1.240,0.512,0.942,0.864,���k��,1.9,��
2017/09/25,12:30,0.950,1.512,0.979,1.796,1.240,0.513,0.941,0.863,���k��,2.3,��
2017/09/25,12:40,0.952,1.511,0.979,1.796,1.243,0.513,0.940,0.865,���k��,2.2,��
2017/09/25,12:50,0.949,1.514,0.979,1.796,1.239,0.513,0.941,0.863,���쓌,2.3,��
2017/09/25,13:00,0.952,1.512,0.978,1.794,1.238,0.514,0.940,0.865,��,2.3,��
2017/09/25,13:10,0.950,1.510,0.979,1.797,1.241,0.514,0.940,0.865,��,2.3,��
2017/09/25,13:20,0.948,1.508,0.980,1.795,1.242,0.514,0.940,0.865,���쓌,3.2,��
2017/09/25,13:30,0.951,1.511,0.979,1.795,1.242,0.513,0.941,0.865,���쓌,2.3,��
2017/09/25,13:40,0.949,1.510,0.981,1.797,1.239,0.514,0.941,0.865,���쓌,2.6,��
2017/09/25,13:50,0.953,1.507,0.980,1.797,1.241,0.513,0.944,0.864,�쓌,2.3,��
2017/09/25,14:00,0.949,1.511,0.980,1.797,1.241,0.514,0.942,0.864,�쓌,1.9,��
2017/09/25,14:10,0.954,1.509,0.979,1.796,1.241,0.514,0.941,0.865,���쓌,1.4,��
2017/09/25,14:20,0.952,1.511,0.980,1.798,1.243,0.514,0.940,0.866,���쓌,2.6,��
2017/09/25,14:30,0.951,1.510,0.981,1.797,1.241,0.515,0.942,0.865,��,2.6,��
2017/09/25,14:40,0.953,1.508,0.981,1.795,1.243,0.514,0.941,0.866,��,2.6,��
2017/09/25,14:50,0.950,1.511,0.981,1.797,1.241,0.512,0.941,0.865,��,2.6,��
2017/09/25,15:00,0.951,1.511,0.982,1.796,1.241,0.513,0.941,0.865,��,1.7,��
2017/09/25,15:10,0.952,1.511,0.982,1.801,1.242,0.513,0.941,0.865,�k��,2.3,��
2017/09/25,15:20,0.949,1.512,0.980,1.795,1.242,0.513,0.942,0.864,���쓌,2.3,��
2017/09/25,15:30,0.954,1.515,0.981,1.798,1.242,0.516,0.942,0.864,���쓌,2.2,��
2017/09/25,15:40,0.951,1.514,0.980,1.795,1.241,0.513,0.942,0.864,���쓌,2.5,��
2017/09/25,15:50,0.950,1.511,0.979,1.798,1.242,0.514,0.941,0.865,�쓌,2.3,��
2017/09/25,16:00,0.953,1.511,0.980,1.797,1.244,0.516,0.940,0.863,��쓌,2.8,��
2017/09/25,16:10,0.951,1.511,0.982,1.795,1.244,0.515,0.941,0.865,��쓌,2.0,��
2017/09/25,16:20,0.949,1.512,0.978,1.796,1.242,0.515,0.942,0.864,��쓌,2.2,��
2017/09/25,16:30,0.953,1.513,0.980,1.798,1.244,0.514,0.941,0.863,��쓌,2.0,��
2017/09/25,16:40,0.952,1.514,0.979,1.798,1.243,0.514,0.941,0.864,��쓌,2.9,��
2017/09/25,16:50,0.955,1.513,0.981,1.797,1.244,0.515,0.943,0.864,��쓌,3.2,��
2017/09/25,17:00,0.950,1.518,0.983,1.796,1.243,0.516,0.940,0.865,��,2.6,��
2017/09/25,17:10,0.951,1.514,0.981,1.796,1.243,0.516,0.940,0.867,��쓌,2.9,��
2017/09/25,17:20,0.950,1.516,0.981,1.797,1.242,0.514,0.943,0.865,��쓌,2.2,��
2017/09/25,17:30,0.951,1.513,0.983,1.798,1.244,0.517,0.942,0.867,��쓌,2.3,��
2017/09/25,17:40,0.953,1.517,0.984,1.796,1.243,0.516,0.942,0.865,��,2.2,��
2017/09/25,17:50,0.951,1.518,0.983,1.797,1.245,0.516,0.940,0.867,��쓌,2.6,��
2017/09/25,18:00,0.951,1.516,0.985,1.800,1.243,0.515,0.942,0.868,��쓌,1.9,��
2017/09/25,18:10,0.954,1.517,0.985,1.798,1.245,0.516,0.942,0.866,��,1.2,��
2017/09/25,18:20,0.950,1.517,0.985,1.797,1.244,0.515,0.943,0.865,��쓌,2.2,��
2017/09/25,18:30,0.951,1.517,0.986,1.798,1.244,0.514,0.943,0.867,��,2.5,��
2017/09/25,18:40,0.949,1.518,0.984,1.797,1.243,0.514,0.945,0.868,��,1.9,��
2017/09/25,18:50,0.951,1.515,0.982,1.796,1.246,0.515,0.942,0.867,��,1.5,��
2017/09/25,19:00,0.953,1.517,0.984,1.796,1.244,0.515,0.942,0.867,��,1.2,��
2017/09/25,19:10,0.953,1.517,0.984,1.797,1.245,0.516,0.943,0.866,��,1.1,��
2017/09/25,19:20,0.953,1.514,0.984,1.798,1.245,0.515,0.942,0.868,��,0.8,��
2017/09/25,19:30,0.950,1.516,0.983,1.798,1.245,0.515,0.942,0.868,��쐼,0.9,��
2017/09/25,19:40,0.950,1.515,0.983,1.797,1.245,0.515,0.941,0.865,-,CALM,��
2017/09/25,19:50,0.951,1.516,0.983,1.795,1.244,0.516,0.944,0.868,-,CALM,��
2017/09/25,20:00,0.953,1.519,0.983,1.797,1.245,0.514,0.944,0.867,���쐼,0.6,��
2017/09/25,20:10,0.952,1.515,0.981,1.795,1.245,0.516,0.942,0.867,��,1.2,��
2017/09/25,20:20,0.951,1.515,0.983,1.798,1.244,0.515,0.943,0.864,��쓌,0.6,��
2017/09/25,20:30,0.952,1.515,0.982,1.796,1.243,0.516,0.942,0.866,��쐼,2.3,��
2017/09/25,20:40,0.950,1.515,0.984,1.794,1.244,0.516,0.943,0.866,��쐼,2.6,��
2017/09/25,20:50,0.953,1.516,0.983,1.796,1.245,0.516,0.944,0.866,��,2.9,��
2017/09/25,21:00,0.950,1.514,0.984,1.798,1.245,0.516,0.942,0.866,��쐼,2.9,��
2017/09/25,21:10,0.951,1.513,0.984,1.797,1.244,0.516,0.943,0.868,��,2.8,��
2017/09/25,21:20,0.953,1.516,0.985,1.797,1.244,0.514,0.943,0.866,��쐼,2.3,��
2017/09/25,21:30,0.954,1.513,0.984,1.799,1.243,0.516,0.942,0.865,��,2.9,��
2017/09/25,21:40,0.952,1.513,0.982,1.796,1.245,0.515,0.943,0.867,��,3.3,��
2017/09/25,21:50,0.952,1.514,0.982,1.796,1.242,0.513,0.941,0.865,��쐼,3.0,��
2017/09/25,22:00,0.951,1.514,0.983,1.796,1.244,0.517,0.942,0.868,��쐼,2.6,��
2017/09/25,22:10,0.951,1.513,0.983,1.796,1.244,0.516,0.942,0.867,��쐼,3.0,��
2017/09/25,22:20,0.951,1.512,0.984,1.796,1.243,0.514,0.941,0.866,��쐼,3.8,��
2017/09/25,22:30,0.951,1.513,0.982,1.797,1.241,0.517,0.944,0.866,��쐼,3.2,��
2017/09/25,22:40,0.950,1.515,0.984,1.796,1.243,0.516,0.942,0.868,��쐼,3.3,��
2017/09/25,22:50,0.951,1.513,0.981,1.795,1.244,0.516,0.942,0.864,��,3.0,��
2017/09/25,23:00,0.952,1.514,0.982,1.797,1.244,0.515,0.942,0.865,��쐼,2.3,��
2017/09/25,23:10,0.952,1.513,0.982,1.796,1.246,0.515,0.942,0.863,��쐼,2.0,��
2017/09/25,23:20,0.951,1.513,0.982,1.799,1.244,0.517,0.943,0.865,��쐼,2.0,��
2017/09/25,23:30,0.951,1.512,0.983,1.795,1.245,0.514,0.941,0.868,�쐼,2.0,��
2017/09/25,23:40,0.950,1.511,0.981,1.796,1.244,0.515,0.942,0.866,��쐼,1.5,��
2017/09/25,23:50,0.948,1.513,0.983,1.798,1.244,0.515,0.941,0.865,��쐼,1.5,��
